Time,TemperatureF,DewpointF,PressureIn,WindDirection,WindDirectionDegrees,WindSpeedMPH,WindSpeedGustMPH,Humidity,HourlyPrecipIn,Conditions,Clouds,dailyrainin,SolarRadiationWatts/m^2,SoftwareType,DateUTC
2013-02-17 00:21:00,38.0,3.0,-100.00,SSW,210,5.0,12.0,22,0.00,,,0.00,0.000000,,2013-02-17 08:21:00,
2013-02-17 00:31:00,38.0,3.0,-100.00,SSW,210,5.0,12.0,22,0.00,,,0.00,0.000000,,2013-02-17 08:31:00,
2013-02-17 00:42:00,38.0,3.0,-100.00,SSW,210,5.0,12.0,22,0.00,,,0.00,0.000000,,2013-02-17 08:42:00,
2013-02-17 00:51:00,36.0,1.0,-100.00,SSW,210,4.0,10.0,22,0.00,,,0.00,0.000000,,2013-02-17 08:51:00,
2013-02-17 01:21:00,36.0,1.0,-100.00,SSW,210,4.0,10.0,22,0.00,,,0.00,0.000000,,2013-02-17 09:21:00,
2013-02-17 01:31:00,36.0,1.0,-100.00,SSW,210,4.0,10.0,22,0.00,,,0.00,0.000000,,2013-02-17 09:31:00,
2013-02-17 01:41:00,36.0,1.0,-100.00,SSW,210,4.0,10.0,22,0.00,,,0.00,0.000000,,2013-02-17 09:41:00,
2013-02-17 01:51:00,36.0,2.0,-100.00,SW,224,8.0,11.0,23,0.00,,,0.00,0.000000,,2013-02-17 09:51:00,
2013-02-17 02:11:00,36.0,2.0,-100.00,SW,224,8.0,11.0,23,0.00,,,0.00,0.000000,,2013-02-17 10:11:00,
2013-02-17 02:21:00,36.0,2.0,-100.00,SW,224,8.0,11.0,23,0.00,,,0.00,0.000000,,2013-02-17 10:21:00,
2013-02-17 02:31:00,36.0,2.0,-100.00,SW,224,8.0,11.0,23,0.00,,,0.00,0.000000,,2013-02-17 10:31:00,
2013-02-17 02:41:00,36.0,2.0,-100.00,SW,224,8.0,11.0,23,0.00,,,0.00,0.000000,,2013-02-17 10:41:00,
2013-02-17 02:51:00,34.0,0.0,-100.00,NW,321,9.0,15.0,23,0.00,,,0.00,0.000000,,2013-02-17 10:51:00,
2013-02-17 03:11:00,34.0,0.0,-100.00,NW,321,9.0,15.0,23,0.00,,,0.00,0.000000,,2013-02-17 11:11:00,
2013-02-17 03:21:00,34.0,0.0,-100.00,NW,321,9.0,15.0,23,0.00,,,0.00,0.000000,,2013-02-17 11:21:00,
2013-02-17 03:32:00,34.0,0.0,-100.00,NW,321,9.0,15.0,23,0.00,,,0.00,0.000000,,2013-02-17 11:32:00,
2013-02-17 03:41:00,34.0,0.0,-100.00,NW,321,9.0,15.0,23,0.00,,,0.00,0.000000,,2013-02-17 11:41:00,
2013-02-17 03:51:00,33.0,13.0,-100.00,SSW,211,11.0,18.0,44,0.00,,,0.00,0.000000,,2013-02-17 11:51:00,
2013-02-17 04:22:00,33.0,13.0,-100.00,SSW,211,11.0,18.0,44,0.00,,,0.00,0.000000,,2013-02-17 12:22:00,
2013-02-17 04:32:00,33.0,13.0,-100.00,SSW,211,11.0,18.0,44,0.00,,,0.00,0.000000,,2013-02-17 12:32:00,
2013-02-17 04:42:00,33.0,13.0,-100.00,SSW,211,11.0,18.0,44,0.00,,,0.00,0.000000,,2013-02-17 12:42:00,
2013-02-17 04:51:00,33.0,15.0,-100.00,NW,326,11.0,19.0,47,0.00,,,0.00,0.000000,,2013-02-17 12:51:00,
2013-02-17 05:21:00,33.0,15.0,-100.00,NW,326,11.0,19.0,47,0.00,,,0.00,0.000000,,2013-02-17 13:21:00,
2013-02-17 05:32:00,33.0,15.0,-100.00,NW,326,11.0,19.0,47,0.00,,,0.00,0.000000,,2013-02-17 13:32:00,
2013-02-17 05:41:00,33.0,15.0,-100.00,NW,326,11.0,19.0,47,0.00,,,0.00,0.000000,,2013-02-17 13:41:00,
2013-02-17 05:51:00,32.0,15.0,-100.00,WNW,283,12.0,20.0,49,0.00,,,0.00,0.000000,,2013-02-17 13:51:00,
2013-02-17 06:11:00,32.0,15.0,-100.00,WNW,283,12.0,20.0,49,0.00,,,0.00,0.000000,,2013-02-17 14:11:00,
2013-02-17 06:21:00,32.0,15.0,-100.00,WNW,283,12.0,20.0,49,0.00,,,0.00,0.000000,,2013-02-17 14:21:00,
2013-02-17 06:32:00,32.0,15.0,-100.00,WNW,283,12.0,20.0,49,0.00,,,0.00,0.000000,,2013-02-17 14:32:00,
2013-02-17 06:42:00,32.0,15.0,-100.00,WNW,283,12.0,20.0,49,0.00,,,0.00,0.000000,,2013-02-17 14:42:00,
2013-02-17 06:51:00,32.0,14.0,-100.00,SW,235,14.0,22.0,47,0.00,,,0.00,2.000000,,2013-02-17 14:51:00,
2013-02-17 07:11:00,32.0,14.0,-100.00,SW,235,14.0,22.0,47,0.00,,,0.00,2.000000,,2013-02-17 15:11:00,
2013-02-17 07:21:00,32.0,14.0,-100.00,SW,235,14.0,22.0,47,0.00,,,0.00,2.000000,,2013-02-17 15:21:00,
2013-02-17 07:31:00,32.0,14.0,-100.00,SW,235,14.0,22.0,47,0.00,,,0.00,2.000000,,2013-02-17 15:31:00,
2013-02-17 07:41:00,32.0,14.0,-100.00,SW,235,14.0,22.0,47,0.00,,,0.00,2.000000,,2013-02-17 15:41:00,
2013-02-17 07:51:00,33.0,14.0,-100.00,NW,322,11.0,23.0,45,0.00,,,0.00,38.000000,,2013-02-17 15:51:00,
2013-02-17 08:11:00,33.0,14.0,-100.00,NW,322,11.0,23.0,45,0.00,,,0.00,38.000000,,2013-02-17 16:11:00,
2013-02-17 08:21:00,33.0,14.0,-100.00,NW,322,11.0,23.0,45,0.00,,,0.00,38.000000,,2013-02-17 16:21:00,
2013-02-17 08:31:00,33.0,14.0,-100.00,NW,322,11.0,23.0,45,0.00,,,0.00,38.000000,,2013-02-17 16:31:00,
2013-02-17 08:41:00,33.0,14.0,-100.00,NW,322,11.0,23.0,45,0.00,,,0.00,38.000000,,2013-02-17 16:41:00,
2013-02-17 08:51:00,34.0,13.0,-100.00,NNW,339,10.0,22.0,41,0.00,,,0.00,429.000000,,2013-02-17 16:51:00,
2013-02-17 09:11:00,34.0,13.0,-100.00,NNW,339,10.0,22.0,41,0.00,,,0.00,429.000000,,2013-02-17 17:11:00,
2013-02-17 09:21:00,34.0,13.0,-100.00,NNW,339,10.0,22.0,41,0.00,,,0.00,429.000000,,2013-02-17 17:21:00,
2013-02-17 09:32:00,34.0,13.0,-100.00,NNW,339,10.0,22.0,41,0.00,,,0.00,429.000000,,2013-02-17 17:32:00,
2013-02-17 09:41:00,34.0,13.0,-100.00,NNW,339,10.0,22.0,41,0.00,,,0.00,429.000000,,2013-02-17 17:41:00,
2013-02-17 09:51:00,37.0,16.0,-100.00,North,351,6.0,17.0,42,0.00,,,0.00,721.000000,,2013-02-17 17:51:00,
2013-02-17 10:21:00,37.0,16.0,-100.00,North,351,6.0,17.0,42,0.00,,,0.00,721.000000,,2013-02-17 18:21:00,
2013-02-17 10:33:00,37.0,16.0,-100.00,North,351,6.0,17.0,42,0.00,,,0.00,721.000000,,2013-02-17 18:33:00,
2013-02-17 10:42:00,37.0,16.0,-100.00,North,351,6.0,17.0,42,0.00,,,0.00,721.000000,,2013-02-17 18:42:00,
2013-02-17 10:51:00,38.0,15.0,-100.00,NNW,330,8.0,14.0,38,0.00,,,0.00,931.000000,,2013-02-17 18:51:00,
2013-02-17 11:21:00,38.0,15.0,-100.00,NNW,330,8.0,14.0,38,0.00,,,0.00,931.000000,,2013-02-17 19:21:00,
2013-02-17 11:32:00,38.0,15.0,-100.00,NNW,330,8.0,14.0,38,0.00,,,0.00,931.000000,,2013-02-17 19:32:00,
2013-02-17 11:41:00,38.0,15.0,-100.00,NNW,330,8.0,14.0,38,0.00,,,0.00,931.000000,,2013-02-17 19:41:00,
2013-02-17 11:51:00,41.0,17.0,-100.00,South,180,6.0,20.0,37,0.00,,,0.00,1069.000000,,2013-02-17 19:51:00,
2013-02-17 12:11:00,41.0,17.0,-100.00,South,180,6.0,20.0,37,0.00,,,0.00,1069.000000,,2013-02-17 20:11:00,
2013-02-17 12:21:00,41.0,17.0,-100.00,South,180,6.0,20.0,37,0.00,,,0.00,1069.000000,,2013-02-17 20:21:00,
2013-02-17 12:31:00,41.0,17.0,-100.00,South,180,6.0,20.0,37,0.00,,,0.00,1069.000000,,2013-02-17 20:31:00,
2013-02-17 12:42:00,41.0,17.0,-100.00,South,180,6.0,20.0,37,0.00,,,0.00,1069.000000,,2013-02-17 20:42:00,
2013-02-17 12:51:00,40.0,16.0,-100.00,WNW,295,6.0,18.0,37,0.00,,,0.00,1106.000000,,2013-02-17 20:51:00,
2013-02-17 13:21:00,40.0,16.0,-100.00,WNW,295,6.0,18.0,37,0.00,,,0.00,1106.000000,,2013-02-17 21:21:00,
2013-02-17 13:31:00,40.0,16.0,-100.00,WNW,295,6.0,18.0,37,0.00,,,0.00,1106.000000,,2013-02-17 21:31:00,
2013-02-17 13:41:00,40.0,16.0,-100.00,WNW,295,6.0,18.0,37,0.00,,,0.00,1106.000000,,2013-02-17 21:41:00,
2013-02-17 13:51:00,39.0,13.0,-100.00,South,186,8.0,16.0,34,0.00,,,0.00,1049.000000,,2013-02-17 21:51:00,
2013-02-17 14:12:00,39.0,13.0,-100.00,South,186,8.0,16.0,34,0.00,,,0.00,1049.000000,,2013-02-17 22:12:00,
2013-02-17 14:21:00,39.0,13.0,-100.00,South,186,8.0,16.0,34,0.00,,,0.00,1049.000000,,2013-02-17 22:21:00,
2013-02-17 14:32:00,39.0,13.0,-100.00,South,186,8.0,16.0,34,0.00,,,0.00,1049.000000,,2013-02-17 22:32:00,
2013-02-17 14:41:00,39.0,13.0,-100.00,South,186,8.0,16.0,34,0.00,,,0.00,1049.000000,,2013-02-17 22:41:00,
2013-02-17 14:51:00,37.0,17.0,-100.00,West,267,8.0,17.0,44,0.00,,,0.00,902.000000,,2013-02-17 22:51:00,
2013-02-17 15:11:00,37.0,17.0,-100.00,West,267,8.0,17.0,44,0.00,,,0.00,902.000000,,2013-02-17 23:11:00,
2013-02-17 15:21:00,37.0,17.0,-100.00,West,267,8.0,17.0,44,0.00,,,0.00,902.000000,,2013-02-17 23:21:00,
2013-02-17 15:31:00,37.0,17.0,-100.00,West,267,8.0,17.0,44,0.00,,,0.00,902.000000,,2013-02-17 23:31:00,
2013-02-17 15:41:00,37.0,17.0,-100.00,West,267,8.0,17.0,44,0.00,,,0.00,902.000000,,2013-02-17 23:41:00,
2013-02-17 15:51:00,35.0,18.0,-100.00,South,179,10.0,18.0,49,0.00,,,0.00,307.000000,,2013-02-17 23:51:00,
2013-02-17 16:11:00,35.0,18.0,-100.00,South,179,10.0,18.0,49,0.00,,,0.00,307.000000,,2013-02-18 00:11:00,
2013-02-17 16:22:00,35.0,18.0,-100.00,South,179,10.0,18.0,49,0.00,,,0.00,307.000000,,2013-02-18 00:22:00,
2013-02-17 16:31:00,35.0,18.0,-100.00,South,179,10.0,18.0,49,0.00,,,0.00,307.000000,,2013-02-18 00:31:00,
2013-02-17 16:41:00,35.0,18.0,-100.00,South,179,10.0,18.0,49,0.00,,,0.00,307.000000,,2013-02-18 00:41:00,
2013-02-17 16:51:00,35.0,10.0,-100.00,NW,324,11.0,19.0,35,0.00,,,0.00,59.000000,,2013-02-18 00:51:00,
2013-02-17 17:21:00,35.0,10.0,-100.00,NW,324,11.0,19.0,35,0.00,,,0.00,59.000000,,2013-02-18 01:21:00,
2013-02-17 17:31:00,35.0,10.0,-100.00,NW,324,11.0,19.0,35,0.00,,,0.00,59.000000,,2013-02-18 01:31:00,
2013-02-17 17:41:00,35.0,10.0,-100.00,NW,324,11.0,19.0,35,0.00,,,0.00,59.000000,,2013-02-18 01:41:00,
2013-02-17 18:21:00,34.0,9.0,-100.00,NW,318,12.0,19.0,35,0.00,,,0.00,40.000000,,2013-02-18 02:21:00,
2013-02-17 18:32:00,34.0,9.0,-100.00,NW,318,12.0,19.0,35,0.00,,,0.00,40.000000,,2013-02-18 02:32:00,
2013-02-17 19:11:00,32.0,6.0,-100.00,East,79,12.0,20.0,33,0.00,,,0.00,0.000000,,2013-02-18 03:11:00,
2013-02-17 19:21:00,32.0,6.0,-100.00,East,79,12.0,20.0,33,0.00,,,0.00,0.000000,,2013-02-18 03:21:00,
2013-02-17 19:51:00,33.0,14.0,-100.00,WNW,287,11.0,19.0,45,0.00,,,0.00,0.000000,,2013-02-18 03:51:00,
2013-02-17 20:21:00,33.0,14.0,-100.00,WNW,287,11.0,19.0,45,0.00,,,0.00,0.000000,,2013-02-18 04:21:00,
2013-02-17 20:32:00,33.0,14.0,-100.00,WNW,287,11.0,19.0,45,0.00,,,0.00,0.000000,,2013-02-18 04:32:00,
2013-02-17 20:41:00,33.0,14.0,-100.00,WNW,287,11.0,19.0,45,0.00,,,0.00,0.000000,,2013-02-18 04:41:00,
2013-02-17 20:51:00,33.0,14.0,-100.00,North,0,10.0,19.0,45,0.00,,,0.00,0.000000,,2013-02-18 04:51:00,
2013-02-17 21:11:00,33.0,14.0,-100.00,North,0,10.0,19.0,45,0.00,,,0.00,0.000000,,2013-02-18 05:11:00,
2013-02-17 21:21:00,33.0,14.0,-100.00,North,0,10.0,19.0,45,0.00,,,0.00,0.000000,,2013-02-18 05:21:00,
2013-02-17 21:31:00,33.0,14.0,-100.00,North,0,10.0,19.0,45,0.00,,,0.00,0.000000,,2013-02-18 05:31:00,
2013-02-17 21:41:00,33.0,14.0,-100.00,North,0,10.0,19.0,45,0.00,,,0.00,0.000000,,2013-02-18 05:41:00,
2013-02-17 21:51:00,32.0,10.0,-100.00,NNW,342,7.0,16.0,39,0.00,,,0.00,0.000000,,2013-02-18 05:51:00,
2013-02-17 22:21:00,32.0,10.0,-100.00,NNW,342,7.0,16.0,39,0.00,,,0.00,0.000000,,2013-02-18 06:21:00,
2013-02-17 22:31:00,32.0,10.0,-100.00,NNW,342,7.0,16.0,39,0.00,,,0.00,0.000000,,2013-02-18 06:31:00,
2013-02-17 22:41:00,32.0,10.0,-100.00,NNW,342,7.0,16.0,39,0.00,,,0.00,0.000000,,2013-02-18 06:41:00,
2013-02-17 23:11:00,34.0,8.0,-100.00,North,1,7.0,15.0,33,0.00,,,0.00,0.000000,,2013-02-18 07:11:00,
2013-02-17 23:21:00,34.0,8.0,-100.00,North,1,7.0,15.0,33,0.00,,,0.00,0.000000,,2013-02-18 07:21:00,